Location: Alpha Ridge Park
(39.3209°N, 76.9128°W)
Time: 16:51:20
(UTC-04:00)

Transit 2A - Pass Details

Date: 31 May 2019
Orbit: 593 x 966 km, 66.7° (Epoch: 18 June)

Event Time Altitude Azimuth Distance (km) Brightness Sun altitude
Rises 14:06:09 0° 340° (NNW) 3,553 9.3 68.3°
Reaches altitude 10° 14:09:30 10° 357° (N) 2,549 8.7 67.9°
Maximum altitude 14:13:42 20° 43° (NE) 1,867 8.0 67.3°
Drops below altitude 10° 14:17:38 10° 89° (E) 2,363 8.5 66.8°
Sets 14:20:35 0° 107° (ESE) 3,214 9.1 66.4°
